Find Starlink 37214

NORAD ID: 68345 Int'l Des: 2026-059 Owner: SPXS Country: US Constellation: starlink operational
LEOCIRCULAR

リアルタイム位置

3D地球を読み込み中...

Starlink 37214について

説明を読み込み中...

次回通過

Passes for default location (London). Set your location on the main map for personalized predictions.

高度履歴

Loading altitude history...

軌道要素

1 68345U 26059AA 26127.20587359 .00048615 00000-0 87540-3 0 9996
2 68345 53.1598 74.4030 0001000 100.4724 259.6397 15.49351858 7160
Epoch: May 7, 2026 • Age: 11 hours

現在のステータス

高度 423.4 km
速度 7.66 km/s
衛星直下点 48.48°N, 22.85°E
打ち上げ日 Mar 22, 2026
運用期間 0.1 years
タイプ internet

技術仕様

分類 Payload
質量 575.00 kg
乾燥質量 530.00 kg
総質量 575.00 kg
長さ 0.30 m
直径 4.10 m
スパン 29.00 m
形状 Box + pan
製造者 SPXS
バスタイプ Starlink V2MO
フェーズステータス In Orbit
所有者/国 SPXS/US

Most Searched